COSMOS 1388

Satellite information

Favourite Embed

Satellite Type and Status

PAYLOADIN ORBIT

Key statistics

Satellite COSMOS 1388 at a glance.

Uptime

15813

Days in orbit

Revolutions

≈ 12.6

Per day

Orbit

LEO

Low Earth Orbit

Inclination

74.0

Latest

Satellite identification and parameters

Extended collection of information and parameters for COSMOS 1388.

Object identification

Identified? True

Debris? False

Object name: COSMOS 1388

International designator: 1982-073A

Object number (NORAD): 13375

Object ID (CCSDS): 13375

Country: COMMONWEALTH OF INDEPENDENT STATES (CIS)

Current information (Y/N): Y

RCS size: MEDIUM

Orbital parameters

Period: 114.513 minutes

Inclination: 74.0145 deg

SMA: 7811.402 km

Apoapsis: 1473.532 km

Periapsis: 1393.001 km

RAAN: 321.0156 deg

Eccentricy: 0.0051547

Argument of periapsis: 143.2205 deg

Mean anomaly: 30.5617 deg

Mean motion: 12.57503769 rev/day

Mean motion (dot): -0.00000002 rev/day2

B* drag term: 0.000084041 1/REarth

Two-line elements (TLE)

Creation date: Nov. 4, 2025, 11:56 p.m.

Reference frame: TEME

Reference center: EARTH

Epoch: Nov. 4, 2025, 7:56 p.m. UTC

TLE line 0: 0 COSMOS 1388

TLE line 1: 1 13375U 82073A 25308.83085029 -.00000002 00000-0 84041-4 0 9996

TLE line 2: 2 13375 74.0145 321.0156 0051547 143.2205 30.5617 12.57503769987347

Live tracking on map

Real-time ground track for satellite COSMOS 1388.

In-orbit conjunctions

A list of the most updated potential collisions computed for object COSMOS 1388.

Target Orbit TCA Probability of collision Miss distance Type
SL-14 DEB LEO 2025-11-04 03:17:07 0.0001136626 953.0 (m) DEBRIS

Associated space launch

Military communications satellites

COSMOS 1388 was lifted into orbit during the mission ‘Kosmos-3M | Strela-1M 241-248’, on board a Kosmos-3M space rocket.

The launch took place on July 21, 1982, 6:31 a.m. from 132/2.

For more information about the launch, click the button.

Launch to space Kosmos-3M | Strela-1M 241-248
Kosmos-3M | Strela-1M 241-248

Agency: N/A

Status: Launch Successful

Launch date: July 21, 1982, 6:31 a.m. UTC

Rocket: Kosmos-3M

Launch pad: 132/2

Location: Plesetsk Cosmodrome, Russian Federation

...

Latest news about this satellite

There are no fresh news available about this satellite. Check back as we update our databases every day.


Newsletter sign-up

Weekly statistics, charts and insights to help you stay on top of the space industry.